www.pogodaiklimat.ru

Погода и климат >> Архив погоды >> Россия >> Алтайский край >> Алейская


ПОГОДА в Алейской

  • Прогноз погоды в Алейской
  • Монитор погоды в Алейской
  • Климат города

АРХИВ ПОГОДЫ в Алейской

Время (UTC), дата Ветер
(напр.,м/с)
 
Видим.   Явления Облачность Т
(С)
Тd
(С)
f
(%)
Тe
(С)
Тes
(С)
Комфортность P
(гПа)
Po
(гПа)
Тmin
(С)
Tmax
(С)
R
(мм)
R24
(мм)
S
(см)
09 18.06 ЮВ 2 50 км 1/0
[Ci fib]
+31.6 +11.6 29 +32 +44 жарко 997.4 978.1
12 18.06 ЮВ 1 50 км 3/1 600 м
[Cu hum Ci fib]
+33.0 +6.4 19 +31 +34 жарко 996.9 977.7 +33.1
15 18.06 ЮЗ 7-25
{25}
4000 м гроза, ливневой дождь 8/5 600 м
[Cb cap Ci fib]
+24.4 +15.5 58 +27 +27 жарко 999.2 979.4
18 18.06 В 1
{25}
10 км в посл. час гроза {ливн. осадки} 4/4 600 м
[Cb cap]
+17.5 +15.1 86 +19 +19 999.9 979.6
21 18.06 В 1 10 км 1/1 1000 м
[Sc]
+16.2 +14.1 87 +17 +17 999.7 979.3
00 19.06 СВ 1 4000 м дымка ясно +16.8 +15.5 92 +18 +19 998.9 978.6 +14.5 0.7
03 19.06 В 2 50 км 3/0
[Ac cast Ci sp]
+26.2 +15.8 53 +29 +38 жарко 996.3 976.7
06 19.06 В 4 50 км {ливн. осадки} 8/5 600 м
[Sc Ci sp]
+29.3 +13.6 38 +31 +36 жарко 993.4 974.0
09 19.06 Ю 7-13
{16}
50 км {ливн. осадки} 3/3 600 м
[Cu hum]
+27.0 +7.0 28 +27 +29 жарко 994.9 975.4
12 19.06 Ю 7-13
{18}
10 км пыльный позёмок 8/8 600 м
[Cu hum]
+23.1 +10.6 45 +25 +25 комфорт 998.8 978.9 +31.5 0.0
15 19.06 Ю 3
{14}
50 км ясно +18.9 +10.0 56 +20 +20 1004.4 984.1
18 19.06 Ю 2 50 км ясно +15.6 +10.3 71 +16 +16 1005.6 985.0
21 19.06 Ю 1 50 км ясно +12.7 +10.1 84 +13 +13 1006.2 985.4
00 20.06 Ю 1 50 км ясно +15.4 +11.0 75 +16 +18 1006.4 985.8 +11.5
03 20.06 Ю 3 50 км 4/0
[Ac cast Ci fib]
+21.8 +11.5 52 +24 +30 комфорт 1005.9 985.8
06 20.06 Ю 4 50 км 8/6 600 м
[Cu Sc Ci fib]
+25.8 +9.8 36 +26 +31 жарко 1004.8 985.0
09 20.06 Ю 4
{10}
50 км 9/6 600 м
[Cu Sc Ci fib]
+26.0 +8.2 32 +26 +29 жарко 1003.9 984.1
12 20.06 ЮВ 2
{18}
50 км {гроза, ливн. осадки} 9/6 600 м
[Sc Ac trans]
+18.5 +11.9 65 +20 +20 1006.1 985.7 +26.7 0.5
15 20.06 Ю 2 50 км 4/3 600 м
[Sc Ac cast]
+16.3 +12.9 80 +16 +16 1006.8 986.3
18 20.06 штиль 0 50 км ясно +13.0 +11.3 89 +12 +12 1007.2 986.4
21 20.06 штиль 0 50 км 3/3 600 м
[Sc]
+11.5 +10.2 92 +11 +11 1007.2 986.3
00 21.06 Ю 3 50 км 9/8 600 м
[Sc Cc]
+15.8 +11.6 76 +15 +16 1007.0 986.5 +11.2
03 21.06 ЮЗ 3 50 км 1/0
[Ac cast]
+20.3 +12.7 62 +23 +30 комфорт 1008.4 988.1
06 21.06 ЮЗ 3 50 км 4/4 600 м
[Cu hum]
+24.4 +9.5 39 +25 +34 комфорт 1008.2 988.2
09 21.06 ЮЗ 3 50 км 6/6 600 м
[Cu hum]
+26.6 +9.2 33 +27 +31 жарко 1007.3 987.4
12 21.06 ЮЗ 1 50 км 8/8 600 м
[Cu med, cong]
+27.4 +9.1 32 +28 +28 жарко 1006.4 986.6 +27.4
15 21.06 СВ 1 50 км {гроза} 4/3 600 м
[Sc diur, vesp Ci sp]
+19.4 +14.4 73 +22 +22 комфорт 1007.2 986.9
18 21.06 штиль 0 50 км {гроза} ясно +15.1 +12.8 86 +15 +15 1007.4 986.8
21 21.06 ЮЗ 1 50 км ясно +15.2 +11.6 79 +16 +16 1007.0 986.4
00 22.06 штиль 0 20 км ясно +18.8 +11.8 64 +19 +21 1006.6 986.3 +12.7
03 22.06 Ю 3 20 км ясно +25.3 +11.4 42 +27 +35 жарко 1005.7 985.8
06 22.06 Ю 3 50 км ясно +30.1 +10.6 30 +30 +44 жарко 1004.7 985.1
09 22.06 ЮВ 3 50 км 1/1 1000 м
[Cu med, cong]
+31.8 +9.5 25 +31 +41 жарко 1003.2 983.8
12 22.06 ЮВ 2 50 км ясно +31.2 +10.0 27 +31 +34 жарко 1002.1 982.7 +32.3
15 22.06 В 2 50 км ясно +23.8 +12.1 48 +26 +26 жарко 1002.0 982.1
18 22.06 ЮВ 2 50 км ясно +20.8 +11.1 54 +23 +23 комфорт 1001.8 981.7
21 22.06 Ю 1 50 км ясно +18.8 +9.1 53 +20 +20 1001.4 981.2
00 23.06 ЮВ 1 50 км 6/5 600 м
[Sc Ac cast]
+19.3 +11.1 59 +21 +22 комфорт 1003.0 982.8 +15.4
03 23.06 СВ 1 50 км 5/0
[Cc]
+26.5 +12.3 41 +28 +38 жарко 1002.5 982.8
06 23.06 ЮВ 1 50 км 8/0
[Ac cast Ci fib]
+30.0 +11.3 32 +31 +42 жарко 1001.9 982.4
09 23.06 З 2 50 км 4/3 1000 м
[Cu med, cong Ci fib]
+30.9 +10.6 29 +31 +40 жарко 1000.7 981.3
12 23.06 СЗ 1 50 км гроза без осадков 9/8 600 м
[Cb cap Ci fib]
+27.6 +13.1 41 +29 +30 жарко 1000.7 981.1 +31.9
15 23.06 С 2
{16}
50 км осадки на расстоянии {гроза, ливн. осадки} 10/10 600 м
[Cb cap]
+19.0 +13.2 69 +21 +21 комфорт 1003.8 983.5
18 23.06 ЮЗ 1 10 км в посл. час ливневой дождь {гроза} 8/8 600 м
[Cb cap]
+17.3 +13.4 78 +18 +18 1003.7 983.4
21 23.06 СВ 1 10 км 9/9 600 м
[Sc]
+16.5 +14.0 85 +17 +17 1003.9 983.5
00 24.06 Ю 1 20 км в посл. час ливневой дождь 10/10 600 м
[Cb cap]
+16.5 +14.8 90 +17 +17 1005.9 985.5 +16.2 2
03 24.06 С 1 50 км {ливн. осадки} 4/1 600 м
[Sc Ci sp]
+21.9 +16.6 72 +26 +35 душно 1005.3 985.2
06 24.06 В 1 50 км {ливн. осадки} 3/1 600 м
[Cu hum Ci sp]
+26.4 +14.7 49 +29 +46 жарко 1004.3 984.6
09 24.06 С 2 50 км 9/3 600 м
[Cu med, cong Ci]
+27.6 +15.1 46 +30 +38 жарко 1003.7 984.0
12 24.06 В 2 50 км в посл. час гроза 9/3 600 м
[Cb cap Ci sp]
+25.6 +15.7 54 +29 +31 душно 1003.8 984.1 +28.3 0.6
15 24.06 С 1 50 км 8/1 600 м
[Sc diur, vesp Ci sp]
+21.3 +15.8 71 +25 +25 комфорт 1004.3 984.3
18 24.06 С 1 50 км 6/6 600 м
[Sc]
+20.0 +15.9 77 +24 +24 комфорт 1003.9 983.8
21 24.06 С 2 50 км 8/4 600 м
[Sc Ci fib]
+18.1 +15.9 87 +19 +19 1003.2 983.0
00 25.06 С 2 50 км 10/1 1000 м
[Sc Ac cast Ci fib]
+20.2 +16.4 79 +24 +24 комфорт 1002.9 982.8 +17.7
03 25.06 С 1 50 км 10/1 600 м
[Cu med, cong Ci sp]
+23.8 +17.9 70 +28 +36 душно 1003.1 983.2
06 25.06 ЮЗ 2 50 км 10/3 600 м
[Cu med, cong Cc]
+26.6 +18.1 60 +31 +41 душно 1003.1 983.4

 

Местоположение метеостанции Алейская (Алтайский край, Россия): широта 52.52 долгота 82.77 высота над уровнем моря 176 м.

В архиве по умолчанию представлена погода в Алейской за последнюю неделю. Архивные данные за месяц целиком и за предыдущие месяцы, начиная с января 2011 года, Вы можете получить, выбрав интересующий диапазон дат из раскрывающегося списка и нажав кнопку "Ввод!".


*Определитесь, кто Вы:
робот инопланетянин человек

Внимание! Время в таблицах - всемирное. Для получения местного времени необходимо прибавить поправку, которая в Алейской равна 7 ч.

Смотрите также архив погоды в соседних городах и на ближайших метеорологических станциях:

Погода в Шипуново (Алтайский край, Россия) (51 км)
Погода в Усть-Калманке (Алтайский край, Россия) (61 км)
Погода в Усть-Чарышской Пристани (Алтайский край, Россия) (63 км)
Погода в Ребрихе (Алтайский край, Россия) (69 км)
Погода в Мамонтово (Алтайский край, Россия) (80 км)
Погода в Поспелихе (Алтайский край, Россия) (86 км)
Погода в Краснощеково (Алтайский край, Россия) (95 км)
Погода в Шелаболихе (Алтайский край, Россия) (101 км)
Погода в Барнауле (Алтайский край, Россия) (113 км)
Погода в Троицком (Алтайский край, Россия) (138 км)

Пояснения к столбцам:

Ветер - указаны скорость ветра в м/с - средняя за 10 мин, порывы в срок и между сроками (в фигурных скобках) и направление, откуда дует ветер: С - северный, СВ - северо-восточный, В - восточный, ЮВ - юго-восточный, Ю - южный, ЮЗ - юго-западный, З - западный, СЗ - северо-западный.
Видимость - горизонтальная дальность видимости в метрах или километрах. При видимости от 1 до 10 км при отсутствии осадков обычно наблюдается дымка, при ухудшении видимости до 1 км и менее - туман. В сухую погоду видимость может ухудшаться дымом, пылью или мглою.
Явления - указаны атмосферные явления, наблюдавшиеся в срок или в последний час перед сроком; фигурными скобками обозначены явления, наблюдавшиеся между сроками (за 1-3 часа до срока); квадратными скобками обозначены град или гололедные отложения с указанием их диаметра в мм.
Облачность - указаны через наклонную черту общая и нижняя облачность в баллах и высота нижней границы облаков в метрах; квадратными скобками обозначены формы облаков: Ci - перистые, Cs - перисто-слоистые, Cc - перисто-кучевые, Ac - высококучевые, As - высокослоистые, Sc - слоисто-кучевые, Ns - слоисто-дождевые, Cu - кучевые, Cb - кучево-дождевые. Подробнее классификацию облаков см. в Атласе облаков (PDF).
T - Температура воздуха - температура, измеренная на высоте 2 м над землей.
Td - Температура точки росы - температура, при понижении до которой содержащийся в воздухе водяной пар достигнет насыщения.
f - Относительная влажность воздуха - влажноcть воздуха, измеренная на высоте 2 м над землей.
Te - Эффективная температура - температура, которую ощущает одетый по сезону человек в тени. Характеристика душности погоды. При расчете учитывается влияние влажности воздуха и скорости ветра на теплоощущения человека.
Tes - Эффективная температура на солнце - температура, которую ощущает человек, с поправкой на солнечный нагрев. Характеристика знойности погоды. Зависит от высоты солнца над горизонтом, облачности и скорости ветра. Ночью, в пасмурную погоду, а также при ветре 12 м/с и более поправка равна нулю.
P - Атмосферное давление - приведенное к уровню моря атмосферное давление.
Po - Атмосферное давление - измеренное на уровне метеостанции атмосферное давление.
Tmin - Минимальная температура - минимум температуры воздуха на высоте 2 м над землей.
Tmax - Максимальная температура - максимум температуры воздуха на высоте 2 м над землей.
R - Количество осадков - Количество выпавших осадков за период времени, мм. При наведении курсора мыши на число - период времени, за который выпало указанное количество осадков.
R24 - Количество осадков - Количество выпавших осадков за 24 часа, мм.
S - Снежный покров - Высота снежного покрова, см. При наведении курсора мыши на число - состояние снежного покрова и степень покрытия местности в баллах.